TimeCST,TemperatureF,Dew PointF,Humidity,Sea Level PressureIn,VisibilityMPH,Wind Direction,Wind SpeedMPH,Gust SpeedMPH,PrecipitationIn,Events,Conditions,WindDirDegrees,DateUTC
12:53 AM,26.1,24.1,92,30.04,10.0,South,4.6,-,N/A,,Clear,180,2013-12-28 06:53:00
1:53 AM,27.0,25.0,92,30.01,10.0,SSW,5.8,-,N/A,,Clear,210,2013-12-28 07:53:00
2:53 AM,26.1,24.1,92,30.00,10.0,South,6.9,-,N/A,,Clear,180,2013-12-28 08:53:00
3:53 AM,26.1,25.0,96,29.98,10.0,South,6.9,-,N/A,,Clear,190,2013-12-28 09:53:00
4:53 AM,23.0,21.9,96,29.96,10.0,SSE,4.6,-,N/A,,Clear,160,2013-12-28 10:53:00
5:53 AM,24.1,21.9,91,29.96,10.0,South,8.1,-,N/A,,Clear,180,2013-12-28 11:53:00
6:53 AM,24.1,21.9,91,29.94,10.0,South,8.1,-,N/A,,Clear,180,2013-12-28 12:53:00
7:53 AM,24.1,21.9,91,29.92,10.0,South,4.6,-,N/A,,Clear,190,2013-12-28 13:53:00
8:53 AM,30.9,27.0,85,29.90,10.0,SSW,10.4,-,N/A,,Clear,200,2013-12-28 14:53:00
9:53 AM,35.1,28.9,78,29.88,10.0,South,12.7,-,N/A,,Clear,190,2013-12-28 15:53:00
10:53 AM,37.0,28.9,73,29.86,10.0,South,9.2,-,N/A,,Clear,190,2013-12-28 16:53:00
11:53 AM,39.0,30.0,70,29.83,10.0,SSW,11.5,-,N/A,,Clear,200,2013-12-28 17:53:00
12:53 PM,39.9,32.0,73,29.78,10.0,SSW,13.8,-,N/A,,Clear,200,2013-12-28 18:53:00
1:53 PM,41.0,33.1,73,29.76,10.0,South,12.7,-,N/A,,Clear,180,2013-12-28 19:53:00
2:53 PM,42.1,34.0,73,29.73,10.0,South,10.4,-,N/A,,Clear,190,2013-12-28 20:53:00
3:53 PM,42.1,34.0,73,29.72,10.0,South,11.5,-,N/A,,Clear,190,2013-12-28 21:53:00
4:53 PM,39.9,34.0,79,29.73,10.0,SSW,12.7,-,N/A,,Clear,210,2013-12-28 22:53:00
5:53 PM,37.0,32.0,82,29.74,10.0,SSW,10.4,-,N/A,,Clear,200,2013-12-28 23:53:00
6:44 PM,37.9,32.0,79,29.75,10.0,West,10.4,-,N/A,,Clear,270,2013-12-29 00:44:00
6:53 PM,37.9,32.0,79,29.78,10.0,West,11.5,-,N/A,,Clear,270,2013-12-29 00:53:00
7:51 PM,33.8,30.2,87,29.79,10.0,NW,21.9,29.9,N/A,,Scattered Clouds,320,2013-12-29 01:51:00
7:53 PM,33.1,30.9,92,29.82,10.0,NW,25.3,33.4,N/A,,Mostly Cloudy,320,2013-12-29 01:53:00
8:53 PM,30.0,28.0,92,29.85,7.0,NNW,25.3,31.1,N/A,,Overcast,330,2013-12-29 02:53:00
9:19 PM,26.1,25.0,96,29.85,4.0,NW,26.5,32.2,N/A,,Overcast,310,2013-12-29 03:19:00
9:53 PM,21.9,21.0,96,29.90,4.0,NW,28.8,36.8,N/A,,Overcast,310,2013-12-29 03:53:00
10:26 PM,21.0,19.0,92,29.89,5.0,NW,24.2,31.1,N/A,,Overcast,310,2013-12-29 04:26:00
10:53 PM,19.0,18.0,96,29.94,5.0,NW,25.3,32.2,N/A,,Overcast,310,2013-12-29 04:53:00
11:53 PM,16.0,15.1,96,29.98,5.0,WNW,21.9,32.2,N/A,,Overcast,300,2013-12-29 05:53:00